This is the latest recevied weather packets stored in our database for station/object E25RIV-1. If no packets are shown the sender has not sent any weather packets the latest 1 day(s).
| Time | Temp. | Humidity | Pressure | Rain* | Wind** | Luminosity | Snow |
|---|---|---|---|---|---|---|---|
| 1778042286 | 37.22° C | 51% | 995 hPa | - | - | 0 W/m² | - |
| 1778041662 | 37.22° C | 51% | 994 hPa | - | - | 0 W/m² | - |
| 1778041038 | 37.22° C | 52% | 995 hPa | - | - | 0 W/m² | - |
| 1778040414 | 36.67° C | 52% | 995 hPa | - | - | 0 W/m² | - |
| 1778039790 | 36.11° C | 54% | 996 hPa | - | - | 0 W/m² | - |
| 1778039166 | 35.56° C | 57% | 998 hPa | - | - | 0 W/m² | - |
| 1778038542 | 35° C | 56% | 998 hPa | - | - | 0 W/m² | - |
| 1778037294 | 35° C | 55% | 997 hPa | - | - | 0 W/m² | - |
| 1778036670 | 35° C | 58% | 998 hPa | - | - | 0 W/m² | - |
| 1778036046 | 35° C | 61% | 999 hPa | - | - | 0 W/m² | - |
| 1778035422 | 34.44° C | 68% | 1001 hPa | - | - | 0 W/m² | - |
| 1778034798 | 33.89° C | 68% | 1001 hPa | - | - | 0 W/m² | - |
| 1778034174 | 33.33° C | 73% | 1003 hPa | - | - | 0 W/m² | - |
| 1778033550 | 32.78° C | 82% | 1004 hPa | - | - | 0 W/m² | - |
| 1778032302 | 31.67° C | 88% | 1004 hPa | - | - | 0 W/m² | - |
| 1778031678 | 31.67° C | 98% | 1005 hPa | - | - | 0 W/m² | - |
| 1778031054 | 31.11° C | 99% | 1005 hPa | - | - | 0 W/m² | - |
| 1778028559 | 30.56° C | 99% | 1005 hPa | - | - | 0 W/m² | - |
| 1778027934 | 30° C | 99% | 1005 hPa | - | - | 0 W/m² | - |
| 1778025439 | 27.78° C | 99% | 1005 hPa | - | - | 0 W/m² | - |
| 1778024815 | 27.78° C | 99% | 1005 hPa | - | - | 0 W/m² | - |
| 1778023567 | 27.22° C | 99% | 1005 hPa | - | - | 0 W/m² | - |
| 1778018575 | 27.22° C | 99% | 1004 hPa | - | - | 0 W/m² | - |
| 1778016703 | 27.22° C | 99% | 1003 hPa | - | - | 0 W/m² | - |
| 1778016079 | 27.22° C | 99% | 1003 hPa | - | - | 0 W/m² | - |
* Rain since midnight (hover to see other rain measurements)
** Current wind speed in m/s (hover to see current wind gust speed)